Retour au catalogue

STARLINK-4632

ActifCommunicationsSSO
NORAD 53679·PAYLOAD·🇺🇸 United States

Lancé Aug 31, 2022 depuis Vandenberg Space Force Base

Loading…

Prochains Passages (prochaines 24 heures)

TLE

FraisSource: CelesTrak SupGP

Époque: Sep 15, 2026, 02:41 UTC

1 53679C 22105AH  26258.11229167  .00023826  00000+0  73952-3 0  2589
2 53679  97.2842 134.8643 0001753  96.0857 181.4520 15.33429913    16

Suivez STARLINK-4632 en temps réel avec AllMySat

Download on the App Store